#timestamp,LO_Frequency,Hit,StdDev 
1618945215.3,286046997.8,N
1618945235.1,286046993.8,Y
1618945255.9,286046993.7,P
1618945275.7,286046995.2,N
1618945295.5,286046997.7,N
1618945315.4,286046996.9,N
1618945335.2,286046997.2,N
1618945355.1,286047001.1,N
1618945356.0,286047001.1,N
1618945375.8,286046998.0,N
1618945395.6,286046996.2,N
1618945415.5,286046993.7,N
1618945435.3,286046994.5,N
1618945455.2,286046991.7,Y
1618945475.9,286046995.1,P
1618945495.7,286046996.8,P
1618945515.6,286046999.0,N
1618945535.4,286047000.7,N
1618945555.2,286047002.4,N
1618945575.1,286047004.2,N
1618945576.0,286047004.2,N
1618945595.8,286047004.2,N
1618945615.7,286047003.9,N
1618945635.5,286047006.0,N
1618945655.3,286047005.6,N
1618945675.2,286047003.3,N
1618945695.9,286046999.8,N
1618945715.7,286047000.4,N
1618945735.6,286047001.7,N
1618945755.4,286047001.4,N
1618945775.2,286046999.8,N
1618945795.1,286047001.1,N
1618945796.0,286047001.1,N
1618945815.8,286046999.1,N
1618945835.7,286046996.2,N
1618945855.5,286046993.3,N
1618945875.3,286046995.4,N
1618945895.2,286046998.0,N
1618945915.0,286047000.0,N
1618945915.9,286047000.0,N
1618945935.8,286047001.1,N
1618945955.6,286047000.3,N
1618945975.4,286047002.3,N
1618945995.3,286047001.3,N
1618946015.1,286047002.0,N
1618946035.8,286047001.5,N
1618946055.7,286047001.6,N
1618946075.5,286047000.4,N
1618946095.4,286046998.8,N
1618946115.2,286046998.4,N
1618946135.0,286046999.2,N
1618946135.9,286046999.2,N
1618946155.8,286047000.5,N
1618946175.6,286047000.6,N
1618946195.4,286046999.1,N
1618946215.3,286046995.7,N
1618946235.1,286046993.3,Y
1618946255.9,286046997.8,P
1618946275.7,286046996.7,P
1618946295.5,286047000.2,N
1618946315.4,286047001.4,N
1618946335.2,286047003.0,N
1618946355.0,286047003.5,N
1618946355.9,286047003.5,N
1618946375.8,286047003.5,N
1618946395.6,286047003.6,N
1618946415.5,286047004.7,N
1618946435.3,286047004.8,N
1618946455.1,286047008.7,Y
1618946475.9,286047005.1,P
1618946495.7,286047003.3,N
1618946515.5,286047004.4,P
1618946535.4,286047002.2,N
1618946555.2,286046999.8,N
1618946575.1,286046999.9,N
1618946576.0,286046999.9,N
1618946595.8,286047002.1,N
1618946615.6,286047005.9,Y
1618946635.5,286047004.8,P
1618946655.3,286047004.3,P
1618946675.1,286047000.3,N
1618946695.9,286046999.2,N
1618946715.7,286046997.4,N
1618946735.6,286046995.4,N
1618946755.4,286046995.9,N
1618946775.2,286046996.0,N
1618946795.1,286046994.2,N
1618946796.0,286046994.2,N
1618946815.8,286046996.3,N
1618946835.7,286046995.7,N
1618946855.5,286046996.0,N
1618946875.3,286046996.5,N
1618946895.2,286046996.7,N
1618946915.1,286046999.5,N
1618946916.0,286046999.5,N
1618946935.8,286046995.4,N
1618946955.6,286046995.7,N
1618946975.5,286046997.1,N
1618946995.3,286047000.7,N
1618947015.2,286047000.6,N
1618947035.0,286047001.9,N
1618947035.9,286047001.9,N
1618947055.8,286047003.7,N
1618947075.6,286047003.8,N
1618947095.4,286047004.2,N
1618947115.3,286047005.7,N
1618947135.1,286047005.9,N
1618947155.9,286047003.2,N
1618947175.7,286047000.2,N
1618947195.5,286047004.1,N
1618947215.4,286047005.1,N
1618947235.2,286047005.2,N
1618947255.1,286047004.9,N
1618947256.0,286047004.9,N
1618947275.8,286047003.1,N
1618947295.6,286047004.2,N
1618947315.5,286047002.2,N
1618947335.3,286047000.7,N
1618947355.2,286046996.5,N
1618947375.0,286046998.0,N
1618947375.9,286046998.0,N
1618947395.7,286046995.6,N
1618947415.6,286046998.0,N
1618947435.4,286047000.9,N
1618947455.3,286047000.3,N
1618947475.1,286046998.7,N
1618947476.0,286046998.7,N
1618947495.8,286047000.7,N
1618947515.7,286047000.8,N
1618947535.5,286046998.8,N
1618947555.3,286046999.3,N
1618947575.2,286046997.0,N
1618947595.0,286046999.3,N
1618947595.9,286046999.3,N
1618947615.8,286046999.5,N
1618947635.6,286046998.7,N
1618947655.4,286047002.7,N
1618947675.3,286047002.2,N
1618947695.1,286047004.4,N
1618947715.8,286047001.7,N
1618947735.7,286047001.6,N
1618947755.5,286047002.0,N
1618947775.4,286047002.8,N
1618947795.2,286047000.2,N
1618947815.0,286046999.9,N
1618947815.9,286046999.9,N
1618947835.8,286047000.2,N
1618947855.6,286047001.9,N
1618947875.4,286047002.9,N
1618947895.3,286047007.5,Y
1618947915.1,286047003.0,P
1618947935.9,286047003.3,N
1618947955.7,286047005.4,P
1618947975.5,286047004.0,N
1618947995.4,286047001.5,N
1618948015.2,286047001.4,N
1618948035.0,286047004.6,N
1618948036.0,286047004.6,N
1618948055.8,286047009.2,Y
1618948075.6,286047004.8,P
1618948095.5,286047005.4,P
1618948115.3,286047004.4,P
1618948135.1,286047000.4,N
1618948155.9,286046996.6,N
1618948175.7,286046996.8,N
1618948195.6,286047002.7,N
1618948215.4,286047000.2,N
1618948235.2,286046997.0,N
1618948255.1,286046997.1,N
1618948256.0,286046997.1,N
1618948275.8,286046997.7,N
1618948295.6,286046994.7,N
1618948315.5,286046992.4,N
1618948335.3,286046994.5,N
1618948355.2,286046993.6,N
1618948375.9,286046993.9,N
1618948395.7,286046996.1,N
1618948415.6,286046996.1,N
1618948435.4,286046993.4,N
1618948455.2,286046995.8,N
1618948475.1,286046995.0,N
1618948476.0,286046995.0,N
1618948495.8,286046996.8,N
1618948515.7,286047000.4,N
1618948535.5,286047002.2,N
1618948555.3,286047001.7,N
1618948575.2,286047003.8,N
1618948595.9,286047000.2,N
1618948615.7,286047000.2,N
1618948635.6,286047004.1,N
1618948655.4,286047004.3,N
1618948675.2,286047001.9,N
1618948695.1,286047000.2,N
1618948696.0,286047000.2,N
1618948715.8,286046999.3,N
1618948735.7,286046996.9,N
1618948755.5,286047001.0,N
1618948775.3,286046999.9,N
1618948795.2,286047002.8,N
